Wind_Speed
11 11 11 12 13 13 14 14 14 15 15 15 16 17 17 18 18 18 18 18 18 18 17 16 16 15 13 12 12 12 12 12 12 13 14 15 16 17 19 20 21 21
9 9 9 9 9 10 10 11 11 12 12 13 14 14 15 15 15 15 16 16 16 16 16 16 16 16 15 15 14 14 14 14 15 15 15 16 16 16 17 18 19 20
9 8 8 8 8 7 8 8 9 9 10 11 12 12 13 13 13 13 13 13 13 13 14 14 14 15 15 14 14 15 15 15 15 15 16 17 17 17 17 18 18 19
10 10 10 9 9 8 8 7 7 7 8 9 10 10 11 11 11 12 12 12 12 12 12 12 13 13 13 13 14 14 15 15 15 15 16 17 17 18 18 19 19 19
12 12 11 11 11 11 11 10 9 8 8 8 9 9 9 10 10 11 11 12 12 13 13 13 13 12 12 13 13 13 14 15 15 16 16 16 17 18 19 19 20 21
13 13 12 12 12 12 13 13 13 12 11 10 10 10 10 10 11 11 11 12 12 13 13 13 13 13 13 14 14 14 14 15 15 16 16 17 17 17 18 19 20 21
14 13 13 13 13 13 13 14 15 15 15 14 13 13 12 13 12 12 12 11 12 13 13 13 14 15 15 15 15 15 16 16 16 16 17 17 18 18 18 19 20 21
15 15 15 15 14 14 14 14 14 15 16 16 16 15 15 15 14 14 14 14 13 14 14 15 16 16 16 17 17 17 17 17 18 18 18 18 19 19 19 20 20 20
15 16 16 16 16 16 15 15 15 15 16 16 17 17 17 17 17 16 16 16 16 16 16 18 18 17 17 19 19 19 19 19 19 19 19 20 20 20 20 20 21 21
16 16 16 17 17 17 17 17 16 16 16 16 17 17 18 18 18 18 18 18 18 18 18 19 20 20 19 20 20 21 21 21 21 21 20 20 21 21 21 21 22 22
18 18 18 18 18 18 18 18 18 18 17 18 17 18 18 18 18 18 19 19 19 19 19 19 21 22 23 22 21 22 23 23 24 23 22 22 21 21 22 22 23 23
18 18 18 18 18 19 19 19 19 19 19 19 18 18 18 19 19 18 19 19 20 20 20 20 20 21 23 23 23 23 23 24 25 25 25 24 22 22 22 23 24 24
17 17 18 18 18 19 19 19 19 19 19 19 20 20 19 19 19 19 19 20 20 20 21 21 20 20 21 23 23 23 24 25 25 26 26 26 24 23 23 23 24 25
19 19 19 19 19 19 19 19 19 19 19 20 20 21 20 20 19 20 20 21 21 21 22 22 22 21 21 22 23 23 24 24 25 26 26 26 26 25 24 24 25 26
22 22 22 21 21 20 19 19 19 19 19 20 20 20 20 20 20 20 20 21 21 21 22 23 23 23 22 22 23 23 24 24 25 25 26 26 26 26 25 25 25 26
22 23 23 23 23 23 22 21 20 20 20 20 20 20 20 19 20 20 20 21 21 21 21 22 23 23 23 23 23 24 24 24 25 25 25 25 25 26 26 26 25 26
23 23 23 22 22 23 24 24 23 22 22 22 22 22 21 20 20 21 21 22 22 23 22 22 22 22 23 23 23 23 23 23 24 24 24 23 24 25 26 26 25 26
24 24 23 23 22 22 22 23 23 23 22 23 23 23 23 23 22 22 23 23 22 22 22 21 21 21 22 22 22 22 22 23 23 24 24 23 24 25 25 26 26 27
25 24 24 24 23 23 22 22 22 22 22 22 22 23 23 23 23 23 24 23 21 20 19 19 20 20 21 21 22 22 22 23 24 24 25 24 24 24 25 25 26 28
26 25 25 25 24 24 24 23 23 23 22 22 22 23 23 23 23 23 23 22 20 18 19 19 19 19 20 20 21 21 22 22 23 24 25 25 24 24 24 25 26 28
25 25 25 26 26 26 26 26 25 24 23 23 23 23 22 22 23 23 23 21 19 18 18 19 20 20 20 20 20 20 21 21 22 24 25 26 25 24 25 25 25 27
25 25 25 26 26 27 28 27 26 25 24 23 24 24 23 23 22 22 22 20 19 18 18 19 20 20 21 21 21 21 21 22 23 24 26 28 28 27 26 26 25 25
26 27 27 27 27 27 28 29 28 27 25 24 25 25 24 23 22 22 21 20 19 19 19 19 20 21 22 23 23 24 24 24 24 25 27 28 29 29 29 28 26 25
28 28 28 28 27 27 27 28 28 28 26 25 24 24 23 22 21 21 20 20 19 20 20 20 21 22 23 24 25 26 27 27 27 27 28 29 29 30 30 30 29 27
31 31 30 30 29 27 26 26 27 28 26 23 22 21 21 21 22 21 21 21 21 21 22 22 23 24 24 25 26 27 28 29 29 30 30 30 30 31 31 31 31 29
33 32 32 32 31 29 28 27 27 27 26 24 22 22 22 23 23 23 24 24 24 25 25 26 26 27 26 27 27 29 30 30 31 31 32 32 32 31 31 31 31 31
Wind_Direction
45 46 47 49 51 51 51 50 50 49 48 46 44 44 43 42 41 40 40 40 39 38 37 35 33 30 26 21 15 7 0 352 343 334 325 317 310 303 298 294 291 289
28 33 35 37 41 45 46 45 43 41 40 38 39 39 38 37 36 35 34 34 32 31 30 29 28 26 23 20 17 13 9 5 1 356 349 343 337 329 320 312 305 299
0 6 9 11 15 22 28 31 30 27 26 25 27 28 28 27 27 27 27 26 25 23 20 19 18 17 14 12 11 9 6 4 1 359 356 352 348 344 338 332 324 316
340 343 346 347 347 350 354 360 5 7 8 8 10 12 14 13 13 14 14 13 13 12 10 9 9 6 2 1 1 360 358 357 356 355 354 352 350 348 345 342 339 333
333 332 332 333 333 333 332 332 335 340 345 347 347 349 353 355 355 357 358 357 358 358 357 358 357 352 350 350 349 349 348 347 347 346 346 346 346 345 344 344 343 341
337 334 330 328 326 325 323 323 323 324 326 327 327 328 332 334 336 340 342 343 343 344 346 346 342 340 342 343 341 339 338 337 337 337 337 338 338 339 339 340 341 341
343 341 339 335 331 327 323 321 320 319 319 318 317 316 317 318 320 323 325 326 327 329 331 331 328 330 335 337 336 334 332 332 331 330 330 330 331 332 333 334 335 337
345 345 345 344 341 336 331 325 320 317 316 315 313 312 311 310 309 310 312 313 315 317 318 317 318 324 328 328 328 327 327 327 326 325 325 325 325 326 327 329 330 331
344 344 344 344 343 341 338 332 327 322 319 316 314 312 311 309 307 306 306 306 307 309 309 310 312 316 318 318 320 321 322 322 322 321 322 322 322 322 323 324 325 326
342 342 341 341 341 339 337 335 332 329 325 322 319 317 315 313 310 309 307 305 305 305 305 306 308 308 308 310 313 316 317 317 318 319 319 319 319 319 320 321 321 322
341 340 339 338 337 335 334 332 331 330 327 325 323 322 319 317 315 313 310 308 306 305 304 304 305 304 304 306 308 309 311 312 314 316 316 316 316 317 319 320 320 319
336 334 333 333 332 331 331 329 327 326 326 324 323 322 320 318 318 316 312 309 308 307 305 304 303 302 302 304 305 305 305 307 310 312 313 313 313 315 317 319 319 318
329 327 327 327 327 326 326 324 322 322 321 321 321 320 319 317 316 315 313 311 309 307 306 304 303 302 302 303 304 304 303 304 306 309 310 311 311 312 314 316 317 316
324 324 324 323 322 321 319 318 317 317 317 318 319 319 317 314 313 312 312 311 310 308 308 307 307 306 305 304 304 303 303 304 306 307 308 309 309 310 311 313 314 314
321 321 320 318 316 314 313 312 312 312 313 314 315 315 312 310 310 310 309 308 307 307 307 307 307 306 305 304 304 305 306 307 308 308 309 309 308 308 309 310 310 311
316 314 313 313 312 311 310 310 309 309 309 310 311 311 309 308 308 308 307 306 305 304 304 303 304 304 304 303 303 304 305 306 308 309 310 310 307 306 306 306 306 306
309 308 307 307 307 308 309 309 309 309 308 308 309 309 310 309 308 306 306 305 306 307 306 305 304 302 301 300 300 301 302 304 306 308 309 310 308 306 305 305 304 301
305 304 304 303 303 304 304 305 305 305 305 305 306 308 310 311 310 308 307 307 308 309 309 310 309 307 305 304 303 302 302 303 304 305 307 308 308 307 306 305 304 301
305 304 304 305 306 305 304 302 301 300 301 302 303 304 306 308 308 306 306 307 308 309 310 313 313 313 311 308 306 306 305 304 304 305 305 306 307 307 307 306 306 304
304 305 305 306 306 306 304 303 302 301 301 300 300 301 302 302 302 302 302 303 304 308 313 315 315 314 311 309 308 308 307 306 306 305 305 305 306 307 307 307 307 305
303 303 303 304 304 304 303 303 303 301 299 298 297 298 299 299 299 299 299 300 301 307 313 314 313 312 312 311 310 309 308 307 306 305 305 304 304 305 305 305 305 304
303 303 302 302 302 302 302 301 301 299 297 295 295 295 295 296 296 295 295 295 298 304 310 311 311 312 314 314 314 313 311 309 307 305 304 303 303 302 302 302 303 303
305 304 304 302 301 301 301 300 299 297 294 292 293 294 293 293 292 292 292 292 296 301 306 309 310 312 315 317 317 318 317 314 311 308 305 304 303 303 302 301 301 302
308 308 307 305 304 303 302 301 300 299 295 292 291 291 290 289 290 291 293 295 297 300 303 306 307 309 312 314 316 317 317 316 315 311 308 306 306 306 306 304 303 301
310 310 309 309 308 308 307 306 305 304 302 296 290 288 288 289 292 296 298 300 302 303 304 305 305 306 308 309 311 312 314 314 314 312 310 308 308 307 307 307 306 303
309 309 309 309 309 310 310 310 309 308 306 302 297 294 294 295 297 300 302 304 305 305 305 306 306 306 306 307 307 309 310 310 310 310 310 311 310 308 307 307 307 305
Height
5790 5788 5787 5786 5784 5783 5781 5780 5779 5777 5776 5774 5773 5771 5770 5768 5767 5765 5764 5763 5761 5760 5759 5758 5757 5756 5755 5754 5753 5752 5751 5750 5749 5748 5747 5746 5745 5744 5743 5742 5742 5741
5791 5790 5788 5787 5786 5784 5783 5781 5780 5779 5777 5775 5774 5772 5771 5769 5768 5767 5765 5764 5763 5761 5760 5759 5758 5757 5755 5754 5753 5752 5750 5749 5748 5747 5745 5744 5743 5742 5741 5740 5739 5738
5792 5790 5789 5788 5786 5785 5784 5782 5781 5779 5778 5776 5774 5773 5771 5770 5769 5767 5766 5765 5763 5762 5761 5760 5758 5757 5756 5755 5753 5752 5751 5749 5748 5746 5745 5744 5742 5741 5740 5738 5737 5736
5792 5791 5789 5788 5787 5785 5784 5782 5781 5780 5778 5776 5775 5773 5772 5770 5769 5767 5766 5765 5764 5762 5761 5760 5759 5757 5756 5755 5754 5752 5751 5749 5748 5746 5745 5743 5742 5740 5739 5737 5736 5734
5791 5790 5789 5788 5786 5785 5783 5782 5781 5779 5778 5776 5774 5773 5772 5770 5769 5767 5766 5765 5763 5762 5761 5759 5758 5757 5756 5755 5753 5752 5751 5749 5748 5746 5745 5743 5741 5739 5738 5736 5734 5733
5790 5789 5788 5787 5786 5784 5783 5781 5780 5778 5777 5775 5774 5773 5771 5770 5768 5767 5766 5764 5763 5761 5760 5759 5758 5757 5755 5754 5753 5751 5750 5749 5747 5746 5744 5742 5741 5739 5737 5735 5733 5732
5789 5788 5787 5786 5785 5783 5782 5780 5778 5776 5775 5774 5773 5772 5770 5769 5767 5766 5765 5764 5762 5761 5760 5758 5757 5756 5754 5753 5752 5750 5749 5747 5746 5745 5743 5741 5740 5738 5736 5734 5732 5731
5788 5787 5786 5785 5783 5782 5781 5779 5777 5775 5774 5772 5771 5770 5768 5767 5766 5765 5763 5762 5761 5760 5758 5757 5756 5754 5753 5752 5750 5749 5748 5746 5745 5743 5742 5740 5738 5736 5735 5733 5731 5729
5787 5786 5785 5783 5782 5781 5779 5778 5776 5775 5773 5771 5770 5768 5766 5765 5764 5763 5761 5760 5759 5758 5757 5755 5754 5752 5751 5750 5749 5747 5746 5745 5743 5742 5740 5738 5736 5735 5733 5731 5729 5728
5787 5785 5783 5782 5780 5779 5778 5777 5775 5773 5772 5770 5768 5766 5765 5763 5762 5760 5759 5758 5757 5756 5755 5753 5751 5750 5749 5748 5746 5745 5743 5742 5741 5739 5738 5736 5734 5733 5731 5729 5728 5726
5785 5783 5782 5780 5779 5777 5776 5775 5773 5772 5770 5768 5767 5765 5763 5762 5760 5758 5757 5755 5754 5753 5752 5751 5749 5747 5746 5745 5744 5742 5741 5740 5738 5737 5735 5734 5732 5730 5729 5727 5725 5724
5783 5782 5780 5779 5777 5776 5774 5773 5771 5770 5768 5767 5765 5764 5762 5760 5758 5757 5755 5753 5752 5750 5749 5749 5748 5746 5744 5742 5741 5740 5738 5737 5735 5734 5733 5731 5730 5728 5726 5725 5723 5721
5782 5781 5779 5777 5776 5774 5772 5771 5770 5768 5767 5765 5763 5762 5760 5758 5757 5755 5753 5751 5750 5748 5747 5746 5745 5744 5742 5740 5738 5737 5736 5734 5733 5731 5730 5728 5727 5725 5724 5722 5720 5719
5780 5779 5777 5776 5774 5772 5771 5769 5767 5766 5764 5763 5761 5759 5758 5756 5755 5753 5751 5749 5747 5745 5744 5742 5741 5740 5739 5738 5736 5735 5733 5732 5730 5729 5727 5725 5723 5722 5721 5719 5718 5716
5778 5776 5775 5773 5772 5770 5769 5767 5765 5764 5762 5760 5759 5757 5755 5754 5752 5751 5749 5747 5745 5743 5741 5739 5738 5737 5736 5735 5733 5731 5730 5728 5727 5726 5724 5722 5720 5719 5717 5716 5714 5713
5776 5774 5772 5771 5769 5767 5766 5764 5763 5761 5759 5758 5756 5755 5753 5751 5750 5748 5746 5744 5743 5741 5739 5737 5735 5733 5732 5731 5730 5728 5727 5725 5724 5722 5721 5719 5717 5716 5714 5713 5711 5709
5774 5772 5770 5768 5766 5764 5762 5760 5759 5758 5756 5755 5753 5751 5750 5748 5747 5745 5744 5742 5740 5738 5736 5735 5733 5731 5729 5728 5727 5725 5724 5722 5721 5719 5718 5716 5715 5713 5711 5709 5707 5706
5771 5769 5767 5765 5764 5762 5760 5758 5756 5755 5753 5752 5750 5748 5747 5745 5743 5742 5740 5739 5737 5735 5733 5731 5730 5728 5726 5725 5723 5722 5721 5719 5718 5716 5714 5713 5711 5710 5708 5706 5704 5702
5767 5766 5764 5762 5760 5759 5757 5756 5754 5752 5751 5749 5748 5746 5744 5742 5741 5739 5737 5736 5734 5733 5731 5729 5727 5725 5724 5722 5720 5719 5717 5716 5714 5712 5711 5709 5708 5706 5704 5703 5701 5699
5764 5762 5761 5759 5757 5756 5754 5753 5751 5750 5748 5747 5745 5743 5742 5740 5738 5736 5734 5733 5731 5730 5728 5726 5724 5722 5721 5719 5717 5716 5714 5713 5711 5709 5707 5706 5704 5703 5701 5700 5698 5695
5762 5760 5758 5756 5754 5753 5751 5749 5748 5747 5745 5743 5742 5740 5738 5737 5735 5733 5731 5730 5728 5727 5725 5723 5720 5719 5717 5715 5714 5713 5711 5709 5708 5706 5704 5702 5701 5700 5698 5696 5694 5692
5759 5758 5756 5754 5752 5749 5747 5746 5744 5743 5742 5740 5738 5737 5735 5733 5732 5730 5728 5727 5725 5723 5722 5720 5718 5716 5714 5712 5711 5709 5708 5706 5705 5703 5701 5699 5697 5696 5694 5693 5691 5689
5757 5755 5753 5751 5749 5747 5744 5742 5741 5739 5738 5736 5734 5733 5731 5729 5728 5727 5725 5724 5722 5720 5719 5717 5715 5713 5711 5709 5708 5706 5705 5703 5701 5700 5698 5695 5693 5692 5690 5688 5686 5685
5754 5752 5750 5748 5747 5745 5742 5740 5737 5735 5733 5732 5731 5729 5727 5726 5725 5723 5722 5720 5719 5717 5716 5714 5712 5710 5709 5707 5705 5703 5701 5700 5698 5696 5694 5692 5690 5688 5685 5683 5681 5679
5750 5748 5746 5744 5743 5742 5740 5737 5734 5732 5730 5728 5727 5725 5724 5723 5721 5720 5719 5717 5715 5714 5712 5710 5709 5707 5706 5704 5702 5700 5698 5696 5694 5692 5690 5688 5686 5684 5681 5679 5676 5674
5746 5744 5743 5741 5739 5738 5736 5734 5732 5729 5727 5725 5724 5722 5721 5720 5718 5717 5715 5714 5712 5710 5708 5707 5705 5704 5703 5701 5699 5697 5695 5693 5691 5688 5686 5684 5682 5680 5677 5674 5672 5670